Ozark, AL

9:02 AM CDT on March 25, 2017 (GMT -0500)
Cairns Army Air Field

Weather History for KOZR - September, 2013

Change the Weather History Date:

Thursday, September 5, 2013

  Actual Average Record
Temperature  
Mean Temperature 82 °F -  
Max Temperature 92 °F 85 °F 93 °F (1998)
Min Temperature 72 °F 66 °F 64 °F (2010)
Cooling Degree Days 16    
Growing Degree Days 32 (Base 50)    
Moisture  
Dew Point 72 °F    
Average Humidity 78    
Maximum Humidity 98    
Minimum Humidity 52    
Precipitation  
Precipitation 0.00 in - - ()
Sea Level Pressure  
Sea Level Pressure 30.08 in    
Wind  
Wind Speed 3 mph (NW)    
Max Wind Speed 6 mph    
Max Gust Speed -    
Visibility 10 miles    
Events Rain    
Averages and records for this station are not official NWS values.
T = Trace of Precipitation, MM = Missing Value Source: NWS Daily Summary

Daily Weather History Graph

Daily Weather History Graph

Search for Another Location

Airport or City:

Trip Planner

Search our weather history database for the weather conditions in past years. The results will help you decide how hot, cold, wet, or windy it might be!

Date:

Astronomy

Sep. 05, 2013 Rise Set
Actual Time 6:21 AM CDT 7:01 PM CDT
Civil Twilight 5:56 AM CDT 7:25 PM CDT
Nautical Twilight 5:27 AM CDT 7:54 PM CDT
Astronomical Twilight 4:58 AM CDT 8:23 PM CDT
Moon 6:28 AM CDT (9/5) 6:58 PM CDT (9/5)
Length of Visible Light 13h 28m
Length of Day
12h 39m
New Moon, 0% of the Moon is Illuminated
Sep 5
New Moon
Sep 12
First Quarter
Sep 19
Full
Sep 26
Last Quarter
Oct 4
New

Hourly Weather History & Observations

Time (CDT) Temp. Heat Index Dew Point Humidity Pressure Visibility Wind Dir Wind Speed Gust Speed Precip Events Conditions
12:58 AM 75.4 °F - 74.3 °F 96% 30.07 in 10.0 mi West 2.3 mph - N/A   Clear
1:40 AM 75.2 °F - 73.4 °F 94% 30.07 in 10.0 mi Calm Calm - N/A Rain Light Rain
1:48 AM 75.2 °F - 73.4 °F 94% 30.07 in 10.0 mi Calm Calm - N/A   Clear
1:58 AM 74.7 °F - 73.8 °F 97% 30.07 in 10.0 mi Calm Calm - 0.00 in   Clear
2:58 AM 74.5 °F - 73.9 °F 98% 30.06 in 8.0 mi Calm Calm - N/A   Clear
3:58 AM 74.7 °F - 73.8 °F 97% 30.05 in 10.0 mi NW 4.6 mph - N/A   Clear
4:58 AM 72.9 °F - 72.0 °F 97% 30.06 in 8.0 mi NW 1.2 mph - N/A   Clear
5:58 AM 72.1 °F - 71.6 °F 98% 30.08 in 10.0 mi SSW 1.2 mph - N/A   Clear
6:58 AM 73.4 °F - 72.7 °F 98% 30.09 in 10.0 mi NW 2.3 mph - N/A   Clear
7:58 AM 76.8 °F - 73.9 °F 91% 30.11 in 10.0 mi North 1.2 mph - N/A   Clear
8:58 AM 79.7 °F - 73.0 °F 80% 30.12 in 10.0 mi ENE 3.5 mph - N/A   Clear
9:58 AM 84.6 °F 90.0 °F 71.4 °F 65% 30.13 in 10.0 mi Variable 4.6 mph - N/A   Clear
10:58 AM 85.8 °F 91.5 °F 71.6 °F 62% 30.14 in 10.0 mi Variable 4.6 mph - N/A   Partly Cloudy
11:58 AM 87.8 °F 93.8 °F 71.4 °F 58% 30.12 in 10.0 mi ENE 4.6 mph - N/A   Partly Cloudy
12:58 PM 88.9 °F 95.1 °F 71.6 °F 56% 30.11 in 10.0 mi WNW 4.6 mph - N/A   Clear
1:58 PM 90.3 °F 97.7 °F 72.0 °F 55% 30.08 in 10.0 mi West 5.8 mph - N/A   Clear
2:58 PM 91.6 °F 98.8 °F 71.8 °F 52% 30.06 in 10.0 mi Variable 4.6 mph - N/A   Clear
3:58 PM 91.4 °F 98.4 °F 71.4 °F 52% 30.04 in 10.0 mi WNW 5.8 mph - N/A   Clear
4:58 PM 91.0 °F 98.2 °F 72.0 °F 53% 30.05 in 10.0 mi NW 5.8 mph - N/A   Clear
5:58 PM 88.5 °F 95.8 °F 72.7 °F 59% 30.04 in 10.0 mi NW 5.8 mph - N/A   Clear
6:58 PM 84.9 °F 91.8 °F 73.4 °F 68% 30.05 in 10.0 mi NW 4.6 mph - N/A   Clear
7:58 PM 83.7 °F 88.9 °F 71.6 °F 67% 30.07 in 10.0 mi NW 5.8 mph - N/A   Clear
8:55 PM 82.4 °F 87.2 °F 71.6 °F 70% 30.08 in 10.0 mi North 4.6 mph - N/A   Clear
9:58 PM 76.8 °F - 72.9 °F 88% 30.09 in 10.0 mi West 4.6 mph - N/A   Partly Cloudy
10:58 PM 77.2 °F - 72.5 °F 85% 30.09 in 10.0 mi WNW 3.5 mph - N/A   Clear
11:37 PM 75.2 °F - 71.6 °F 89% 30.09 in 10.0 mi North 2.3 mph - N/A Rain Light Rain
11:47 PM 77.0 °F - 71.6 °F 83% 30.09 in 10.0 mi NNE 1.2 mph - N/A   Clear
11:58 PM 77.2 °F - 72.1 °F 84% 30.09 in 10.0 mi Calm Calm - 0.00 in   Clear